2023/03/14 00:00:00,21.1,-2.0
2023/03/14 00:10:00,21.1,-2.1
2023/03/14 00:20:00,21.1,-2.1
2023/03/14 00:30:00,21.1,-2.3
2023/03/14 00:40:00,21.1,-2.3
2023/03/14 00:50:00,21.1,-2.6
2023/03/14 01:00:00,21.1,-2.6
2023/03/14 01:10:00,21.1,-2.7
2023/03/14 01:20:00,21.1,-2.7
2023/03/14 01:30:00,21.1,-2.5
2023/03/14 01:40:00,21.0,-2.2
2023/03/14 01:50:00,21.1,-2.0
2023/03/14 02:00:00,21.1,-2.0
2023/03/14 02:10:00,21.1,-2.5
2023/03/14 02:20:00,21.1,-2.6
2023/03/14 02:30:00,21.1,-2.8
2023/03/14 02:40:00,21.0,-2.8
2023/03/14 02:50:00,21.0,-2.7
2023/03/14 03:00:00,21.1,-2.6
2023/03/14 03:10:00,21.1,-2.8
2023/03/14 03:20:00,21.1,-2.7
2023/03/14 03:30:00,21.0,-2.9
2023/03/14 03:40:00,21.0,-2.6
2023/03/14 03:50:00,21.0,-2.9
2023/03/14 04:00:00,21.0,-2.9
2023/03/14 04:10:00,21.1,-2.7
2023/03/14 04:20:00,21.1,-2.9
2023/03/14 04:30:00,21.1,-2.6
2023/03/14 04:40:00,21.0,-2.8
2023/03/14 04:50:00,21.0,-2.8
2023/03/14 05:00:00,21.0,-3.2
2023/03/14 05:10:00,21.0,-3.2
2023/03/14 05:20:00,21.2,-3.0
2023/03/14 05:30:00,21.1,-2.9
2023/03/14 05:40:00,21.2,-2.9
2023/03/14 05:50:00,21.0,-2.8
2023/03/14 06:00:00,21.0,-2.9
2023/03/14 06:10:00,21.0,-2.8
2023/03/14 06:20:00,21.0,-2.8
2023/03/14 06:30:00,21.0,-2.6
2023/03/14 06:40:00,21.0,-2.6
2023/03/14 06:50:00,21.0,-2.6
2023/03/14 07:00:00,21.1,-2.2
2023/03/14 07:10:00,21.1,-2.0
2023/03/14 07:20:00,21.1,-1.8
2023/03/14 07:30:00,21.1,-1.7
2023/03/14 07:40:00,21.1,-2.1
2023/03/14 07:50:00,21.1,-1.7
2023/03/14 08:00:00,21.1,-1.1
2023/03/14 08:10:00,21.1,-1.3
2023/03/14 08:20:00,21.1,-1.1
2023/03/14 08:30:00,21.2, 0.1
2023/03/14 08:40:00,21.2, 0.4
2023/03/14 08:50:00,21.4, 1.5
2023/03/14 09:00:00,21.3, 2.7
2023/03/14 09:10:00,21.5, 3.8
2023/03/14 09:20:00,21.9, 6.0
2023/03/14 09:30:00,22.0, 6.9
2023/03/14 09:40:00,22.5, 8.1
2023/03/14 09:50:00,22.8, 9.4
2023/03/14 10:00:00,22.4, 9.6
2023/03/14 10:10:00,22.5, 9.4
2023/03/14 10:20:00,22.8, 9.8
2023/03/14 10:30:00,22.2,10.1
2023/03/14 10:40:00,22.1, 9.9
2023/03/14 10:50:00,22.2,11.3
2023/03/14 11:00:00,22.3,11.4
2023/03/14 11:10:00,22.8,11.8
2023/03/14 11:20:00,22.2,11.9
2023/03/14 11:30:00,22.0,12.0
2023/03/14 11:40:00,21.9,12.0
2023/03/14 11:50:00,20.7,12.6
2023/03/14 12:00:00,20.6,13.2
2023/03/14 12:10:00,20.4,14.1
2023/03/14 12:20:00,20.6,13.7
2023/03/14 12:30:00,21.5,14.8
2023/03/14 12:40:00,21.9,14.9
2023/03/14 12:50:00,21.3,15.0
2023/03/14 13:00:00,21.6,15.7
2023/03/14 13:10:00,21.7,16.3
2023/03/14 13:20:00,21.8,16.3
2023/03/14 13:30:00,104.7,15.4
2023/03/14 13:40:00,104.5,16.3
2023/03/14 13:50:00,104.0,16.8
2023/03/14 14:00:00,104.0,17.2
2023/03/14 14:10:00,103.2,16.8
2023/03/14 14:20:00,102.6,17.0
2023/03/14 14:30:00,102.5,15.8
2023/03/14 14:40:00,102.2,17.0
2023/03/14 14:50:00,---,17.6
2023/03/14 15:00:00,77.1,18.0
2023/03/14 15:10:00,68.6,17.8
2023/03/14 15:20:00,19.4,19.8
2023/03/14 15:30:00,---,20.1
2023/03/14 15:40:00,67.9,20.5
2023/03/14 15:50:00,42.9,21.0
2023/03/14 16:00:00,18.0,19.9
2023/03/14 16:10:00,17.8,21.2
2023/03/14 16:20:00,17.6,20.5
2023/03/14 16:30:00,17.4,20.3
2023/03/14 16:40:00,16.7,18.9
2023/03/14 16:50:00,16.4,17.8
2023/03/14 17:00:00,16.3,16.1
2023/03/14 17:10:00,16.3,15.3
2023/03/14 17:20:00,16.2,14.4
2023/03/14 17:30:00,16.1,13.7
2023/03/14 17:40:00,15.9,11.1
2023/03/14 17:50:00,15.9, 8.8
2023/03/14 18:00:00,15.7, 6.7
2023/03/14 18:10:00,15.7, 5.3
2023/03/14 18:20:00,15.7, 5.0
2023/03/14 18:30:00,15.6, 4.1
2023/03/14 18:40:00,15.6, 3.8
2023/03/14 18:50:00,15.7, 3.7
2023/03/14 19:00:00,15.7, 3.4
2023/03/14 19:10:00,15.7, 3.3
2023/03/14 19:20:00,15.7, 3.4
2023/03/14 19:30:00,15.7, 3.3
2023/03/14 19:40:00,15.7, 3.3
2023/03/14 19:50:00,15.7, 2.9
2023/03/14 20:00:00,15.7, 3.2
2023/03/14 20:10:00,15.7, 3.2
2023/03/14 20:20:00,15.7, 3.1
2023/03/14 20:30:00,15.7, 3.2
2023/03/14 20:40:00,15.8, 3.3
2023/03/14 20:50:00,15.7, 3.3
2023/03/14 21:00:00,15.8, 3.1
2023/03/14 21:10:00,15.8, 3.6
2023/03/14 21:20:00,15.8, 3.6
2023/03/14 21:30:00,15.9, 3.5
2023/03/14 21:40:00,16.0, 3.3
2023/03/14 21:50:00,15.8, 3.0
2023/03/14 22:00:00,15.7, 3.2
2023/03/14 22:10:00,15.7, 3.1
2023/03/14 22:20:00,15.7, 3.1
2023/03/14 22:30:00,15.7, 3.2
2023/03/14 22:40:00,15.7, 3.1
2023/03/14 22:50:00,15.7, 3.2
2023/03/14 23:00:00,15.7, 2.8
2023/03/14 23:10:00,15.7, 2.5
2023/03/14 23:20:00,15.8, 2.6
2023/03/14 23:30:00,15.8, 2.8
2023/03/14 23:40:00,15.8, 2.9
2023/03/14 23:50:00,15.7, 2.5
